Showing default

DIADEME 1, 2674

Orbit data source: Space-Track

DIADEME 1, 2674 is a payload satellite owned by CNES (FR) in LEO that was launched on Wed, 08 Feb 1967 UTC via a DIAMANT A launch vehicle from the Hamma Guira Space Track Range (HGSTR). Payload-class satellites include a variety of spacecraft equipped with specific instruments for various scientific and technological missions. These include communications satellites like Starlink; space stations such as the ISS; scientific satellites like the Hubble; Earth observation satellites from companies like Planet Labs, Umbra, and HawkEye 360; GPS; miniature CubeSats for education and research; and military/defense satellites.

Loading next visibility...
Identifier
2674, 1967-011A
Orbit
LEO
Country
Flag of FRFR
Related business
Manufacturer
CNES
Mission
Spacecraft
Bus & Motor
D-1, Unknown motor
Mass
23 kg wet, 23 kg dry
Launch date (UTC)
1967-02-08 (59 years ago)
Launch vehicle
DIAMANT A
Launch site
Hamma Guira Space Track Range (HGSTR)
Object type
Payload
Rocket body
Debris
Shape & HBR
Unknown
Radar Cross Section
Medium (>0.1 m² and <1 m²)

Expand to show TLE details & history
Last TLE update: 6 hours ago

TLE from 6 hours ago
0 DIADEME 1
1  2674U 67011A   26035.17047323  .00008868  00000-0  97507-3 0  9998
2  2674  39.9167 311.1240 0207563  52.8488 309.1058 14.73133726 70477
Epoch: 2026-02-04T04:05Z
TLE epoch observation values (Epoch: 2026-02-04T04:05:28.887Z)
Latitude
0.00003°
Longitude
115.41277°
Altitude
560.375 km
Speed
7.632 km/s
True Right ascension
20h 44m 29s
True Declination
0° 00' 00"
Sunlit
Object was in daylight at epoch
Visualization orbit readout
Latitude
Unknown
Longitude
Unknown
Altitude
Unknown
Speed
Unknown
Apparent Right ascension
Unknown
Apparent Declination
Unknown
Sunlit
N/A
Visualization observer readout
Local Sidereal Time
12:10:10
Azimuth
Unknown
Elevation
Unknown
Doppler factor
Unknown
Orbital elements
Apogee altitude
799.434 km
Perigee altitude
507.534 km
Semi-major axis
7,031.621 km
Eccentricity
0.02076
Inclination
39.9167°
RAAN
311.124°
Arg. of periapsis
52.8488°
True anomaly
307.22978°
Mean anomaly
309.1058°
Eccentric anomaly
308.17085°
Mean motion
3.68095 °/min
Orbital period
97.8 mins
BSTAR
0.00097507
Loading maneuver chart data...
Computing Atmospheric mass density...

Documentation

Showing up to 5 results
|